Location: Detroit
(42.3310°N, 83.0460°W)
Time: 15:44:04
(UTC-04:00)

Courier 1B Rocket - Pass Details

Date: 23 April 2024
Orbit: 920 x 1201 km, 28.2° (Epoch: 19 May)

Event Time Altitude Azimuth Distance (km) Brightness Sun altitude
Exits shadow 03:55:46 18° 155° (SSE) 2,526 6.9 -25.6°
Drops below altitude 10° 03:59:53 10° 122° (ESE) 3,035 7.7 -25.1°
Sets 04:03:37 0° 104° (ESE) 3,949 8.5 -24.7°
